STARLINK-5945 (56018 NORAD) Tracking and Keplerian Element Data

This shows tracking and keplerian element data for the satellite.

Feedback or suggestion? Click here.




ElementValue
Catalog56018
NameSTARLINK-5945
Epoch Orbit717
Epoch Day127.00001157
Epoch Year2023
RAAN293.1933
Inclination42.9992
Eccentricity0.0001429
Argument of Perigee275.1419
Mean Anonmoly307.8826
Mean Motion15.54952831
Decay Rate-0.00925368
L11 56018U 23042AJ 23127.00001157 -.00925368 00000+0 -14853-1 0 9996
L22 56018 42.9992 293.1933 0001429 275.1419 307.8826 15.54952831 7174



Live tracking and technical data element details for STARLINK-5945 (NORAD 56018). STARLINK-5945 can be tracked NOW for your location showing map with azimuth and elevation plus other details from your city location.







IsCatalogInMostPopularTable: catalog: 56018, numindb: 1
Update: records affected: 1



GetName: 56018 STARLINK-5945

Hit Count: updated at: Mon, 05 Jun 2023 01:05:48 GMT